Hourly Data Report for October 03, 2013

All times are specified in Local Standard Time (LST). Add 1 hour to adjust for Daylight Saving Time where and when it is observed.

HALL BEACH A
NUNAVUT

68°46'33.000" N
81°14'33.000" W
9.10 m
2402354
71293
YUX

Download Data

Hourly Data (October 2013)
Hourly Data Report for October 3, 2013
Temp Definition
°C
Dew Point Temp Definition
°C
Rel Hum Definition
%
Wind Dir Definition
10's deg

Wind Spd Definition
km/h
Visibility Definition
km
Stn Press Definition
kPa
Hmdx Definition


Wind Chill Definition


Weather Definition


TIME
00:00 Legend Double Dagger -3.7 -6.7 80 36 30 16.1 101.33   -11 LegendNANA
01:00 Legend Double Dagger -3.9 -6.9 80 35 30 16.1 101.36   -12 LegendNANA
02:00 Legend Double Dagger -4.1 -7.2 79 35 24 16.1 101.39   -11 LegendNANA
03:00 Legend Double Dagger -4.4 -7.4 79 34 33 16.1 101.40   -13 LegendNANA
04:00 Legend Double Dagger -4.4 -7.3 80 34 30 16.1 101.43   -12 LegendNANA
05:00 Legend Double Dagger -4.7 -7.3 82 33 28 16.1 101.48   -12 LegendNANA
06:00 Legend Double Dagger -4.9 -7.5 82 34 33 16.1 101.49   -13 LegendNANA
07:00 Legend Double Dagger -5.1 -7.6 83 34 28 16.1 101.57   -13 LegendNANA
08:00 Legend Double Dagger -5.1 -7.4 84 34 28 16.1 101.59   -13 LegendNANA
09:00 Legend Double Dagger -4.3 -6.6 84 35 30 16.1 101.61   -12 LegendNANA
10:00 Legend Double Dagger -3.6 -6.1 83 36 26 16.1 101.63   -11 LegendNANA
11:00 Legend Double Dagger -3.4 -6.2 81 36 21 16.1 101.68   -10 LegendNANA
12:00 Legend Double Dagger -3.4 -6.0 82 35 24 16.1 101.71   -10 LegendNANA
13:00 Legend Double Dagger -2.7 -6.2 77 35 28 16.1 101.74   -10 LegendNANA
14:00 Legend Double Dagger -2.6 -6.3 76 35 26 16.1 101.76   -9 LegendNANA
15:00 Legend Double Dagger -2.8 -6.6 75 34 26 16.1 101.80   -10 LegendNANA
16:00 Legend Double Dagger -3.3 -6.9 76 34 26 16.1 101.84   -10 LegendNANA
17:00 Legend Double Dagger -4.3 -6.6 84 34 22 16.1 101.87   -11 LegendNANA
18:00 Legend Double Dagger -4.9 -6.7 87 34 21 16.1 101.92   -12 LegendNANA
19:00 Legend Double Dagger -5.1 -6.6 89 34 21 16.1 101.95   -12 LegendNANA
20:00 Legend Double Dagger -5.7 -7.4 88 34 22 16.1 101.99   -13 LegendNANA
21:00 Legend Double Dagger -5.1 -7.3 85 36 24 16.1 101.99   -12 LegendNANA
22:00 Legend Double Dagger -5.6 -7.6 86 33 24 16.1 102.02   -13 LegendNANA
23:00 Legend Double Dagger -5.9 -8.2 84 34 28 16.1 102.03   -14 LegendNANA

Notes on Data Quality.

Legend

  • E = Estimated
  • M = Missing
  • NA = Not Available
  • ‡ = Partner data that is not subject to review by the National Climate Archives
Date modified: